Regional Weather Roundup
Issued by NWS

Home | Current Version | Previous Version | Text Only | Print | Product List | Glossary On
Versions: 1 2 3 4 5 6 7 8 9 10 11 12 13 14 15 16 17 18 19 20 21 22 23 24 25 26 27 28 29 30 31 32 33 34 35 36 37 38 39 40 41 42 43 44 45 46 47 48 49 50
000
ASUS43 KMKX 310521
RWRWI

WISCONSIN REGIONAL WEATHER ROUNDUP
NATIONAL WEATHER SERVICE MILWAUKEE/SULLIVAN WI
1200 AM CDT WED AUG 31 2016

NOTE: "FAIR" INDICATES FEW OR NO CLOUDS BELOW 12,000 FEET WITH NO
SIGNIFICANT WEATHER AND/OR OBSTRUCTIONS TO VISIBILITY.

WIZ001-002-006>008-014>016-023>028-310600-
NORTHWEST WISCONSIN

CITY           SKY/WX    TMP DP  RH WIND       PRES   REMARKS
SUPERIOR ARPT  CLEAR     49  49  99 W3        30.17S
ASHLAND        CLEAR     60  50  69 NW3       30.15F
HAYWARD        CLEAR     52  50  93 CALM      30.18R
SIREN          CLEAR     54  52  95 CALM      30.18R
CUMBERLAND     CLEAR     57  54  88 NW3       30.17S
RICE LAKE      CLEAR     55  52  90 CALM      30.18R
CHETEK         NOT AVBL
LADYSMITH      CLEAR     57  55  92 N3        30.17S
EAU CLAIRE     CLEAR     60  55  83 CALM      30.15R
MENOMONIE      CLEAR     61  57  87 CALM      30.17R
NEW RICHMOND   CLEAR     59  56  92 CALM      30.17S
OSCEOLA        PTCLDY    57  57 100 CALM      30.20R FOG
$$

WIZ003>005-009-010-017-018-310600-
NORTH CENTRAL WISCONSIN

CITY           SKY/WX    TMP DP  RH WIND       PRES   REMARKS
MANITOWISH WTR NOT AVBL
ARBOR VITAE    CLEAR     52  50  94 CALM      30.16S
WOODRUFF       CLEAR     52  50  94 CALM      30.16S
RHINELANDER    CLEAR     51  51 100 CALM      30.16S
EAGLE RIVER    CLEAR     50  50 100 CALM      30.15S
LAND O LAKES   CLEAR     48  48  99 CALM      30.16S
PHILLIPS       CLEAR     52  52 100 CALM      30.16S
TOMAHAWK       CLEAR     48  47  95 CALM      30.16S
MEDFORD        CLEAR     52  52 100 CALM      30.15S
MERRILL        CLEAR     51  50  96 CALM      30.16S
$$

WIZ029-030-035-036-043>047-310600-
CENTRAL WISCONSIN

CITY           SKY/WX    TMP DP  RH WIND       PRES   REMARKS
WAUSAU         CLEAR     61  49  64 N3        30.13S
MOSINEE        CLEAR     61  50  67 N8        30.16R
MARSHFIELD     CLEAR     63  52  67 NE6       30.14S
STEVENS POINT  CLEAR     61  54  77 N5        30.15R
WAUPACA        CLOUDY    67  58  72 N6        30.13R
WAUTOMA        MOCLDY    67  61  81 N6        30.12R
WISC RAPIDS    CLEAR     64  57  78 N8        30.15R
CAMP DOUGLAS   CLOUDY    60  58  94 NW3       30.13R
$$

WIZ011>013-019>022-031-037>040-048>050-310600-
NORTHEAST WISCONSIN

CITY           SKY/WX    TMP DP  RH WIND       PRES   REMARKS
ANTIGO         CLEAR     52  50  92 CALM      30.16R
SHAWANO        PTCLDY    67  60  79 N7        30.13R
OCONTO         NOT AVBL
STURGEON BAY   PTCLDY    65  57  75 N7        30.11
GREEN BAY      MOCLDY    68  65  90 NE15G22   30.10R
MANITOWOC      MOCLDY    69  62  78 NE9G20    30.08R
APPLETON       CLEAR     68  54  60 N13       30.09R
CLINTONVILLE   PTCLDY    64  57  77 N6        30.13R
OSHKOSH        MOCLDY    71  61  70 N12       30.09R
$$

WIZ032>034-041-042-053>061-310600-
SOUTHWEST WISCONSIN

CITY           SKY/WX    TMP DP  RH WIND       PRES   REMARKS
LA CROSSE      CLOUDY    66  63  90 N6        30.14R
SPARTA         CLOUDY    58  58 100 CALM      30.15R
VIROQUA        CLOUDY    62  60  92 N6        30.16R
BOSCOBEL       PTCLDY    68  65  90 CALM      30.12R
PRAIRIE DU CHI PTCLDY    67  64  89 CALM      30.12S
PLATTEVILLE    CLEAR     67  67 100 N6        30.12S
$$

WIZ056-057-062-063-064-067-068-310600-
SOUTH CENTRAL WISCONSIN

CITY           SKY/WX    TMP DP  RH WIND       PRES   REMARKS
REEDSBURG      NOT AVBL
BARABOO/DELLS  MOCLDY    67  61  81 NW3       30.12R
LONE ROCK      CLEAR     70  63  78 NW6       30.11R
MINERAL POINT  CLEAR     68  68 100 N7        30.12S
MADISON        CLOUDY    69  65  86 N6        30.09R
MIDDLETON      CLOUDY    68  67  96 NW5       30.10S
WATERTOWN      PTCLDY    69  66  92 NW6       30.08R
MONROE         CLEAR     70  66  88 NW6       30.10S
JANESVILLE     FOG       68  68 100 CALM      30.08S VSB 1/2
$$

WIZ051-052-058>065-066-070>072-310600-
SOUTHEAST WISCONSIN

CITY           SKY/WX    TMP DP  RH WIND       PRES   REMARKS
MILWAUKEE      MOCLDY    73  68  84 W6        30.05S
WAUKESHA       CLOUDY    64  64 100 W3        30.08S
MILWAUKEE/TIMM CLOUDY    68  64  88 NW3       30.07S
RACINE         CLOUDY    70  68  93 W6        30.07S
BURLINGTON     CLOUDY    65  65  99 CALM      30.07S FOG
KENOSHA        CLOUDY    69  67  93 W5        30.06F
FOND DU LAC    PTCLDY    70  64  81 NW7       30.08R
SHEBOYGAN      CLOUDY    72  64  76 N10       30.07R
WEST BEND      PTCLDY    68  63  83 NW3       30.07S
JUNEAU         MOCLDY    68  64  88 NW5       30.10R
$$

LSZ147-162-310600-
LAKE SUPERIOR

STATION/POSITION TIME  TEMP    WIND        PRES    WAVE
                       AIR SEA DIR/SP/G            HT/PER
                 (UTC) (F)     (DEG/KT/KT) (MB)    (FT/S)
W MID LAKE BUOY  0450   67 68  340/ 10/ 12 1019.7R   1/ 3
DEVILS ISLAND    0500   66     340/ 13/ 14 1020.7R
PORT WING        0320   69     320/  5/ 13 1021.3R
SAXON HARBOR     0430          330/ 10/ 12 1020.3S
$$

LMZ867-665-643>646-310600-
LAKE MICHIGAN

STATION/POSITION TIME  TEMP    WIND        PRES    WAVE
                       AIR SEA DIR/SP/G            HT/PER
                 (UTC) (F)     (DEG/KT/KT) (MB)    (FT/S)
CHAMBERS ISLAND  0400   69      10/ 15/ 19 1019.0
S GREEN BAY BUOY 0500   69 72   50/ 17/ 19 1018.8
N MID LAKE BUOY  0450   67 71  360/ 16/ 17 1018.2R   3/ 5
NORTHPORT PIER   0440   67      10/  8/ 11 1019.0R
ALGOMA LAKESHORE 0300           30/ 13/ 22   N/A
KEWAUNEE LAKESHO 0400   69      20/ 10/ 21 1017.9R
SHEBOYGAN LAKESH 0500   67     360/ 18/ 20 1017.8R
PORT WASHINGTON  0400   74     300/  5/ 10 1018.3
ATWATER BUOY     0500   70     300/  8/ 10   N/A
MILWAUKEE LAKESH 0410   73     290/  6/  7   N/A
S MID LAKE BUOY  0450   74 75  240/  6/  8 1016.7F   1
KENOSHA   LAKESH 0500   72     280/  9/ 11 1017.3F
$$

TC  - TEMPERATURE IN CELSIUS
VSB - VISIBILITY IN STATUTE MILES
WCI - WIND CHILL INDEX
HX  - HEAT INDEX





USA.gov is the U.S. government's official web portal to all federal, state and local government web resources and services.